sat.trackr.live / text

‹ back to catalog

LILIUM-2

NORAD 66679 · 2025-276P

PAYLOAD ACTIVE UNKNOWN

§ Identity

Operator
Country
ROC
Launch date
2025-11-28
Launch site
AFWTR
Launch vehicle
Mass (kg)
RCS (m²)

External: N2YO · Heavens-Above · Gunter

§ Orbital elements

Epoch: 2026-05-25T03:59:53.172960Z

Period
94.87 min
Inclination
97.4160°
Eccentricity
0.0007730
Mean motion
15.17813739 rev/d
Perigee alt
507.1 km
Apogee alt
517.8 km
Semi-major
6,890.6 km
B*
9.7390e-5
RAAN
218.6732°
Arg perigee
89.0117°
Mean anomaly
271.2003°
Rev number
2,690

§ Raw data

LILIUM-21 66679U 25276P   26145.16658765  .00001904  00000+0  97390-4 0  99932 66679  97.4160 218.6732 0007730  89.0117 271.2003 15.17813739 26902

JSON: /api/v1/satellites/66679 · /tle

For live sub-satellite position, see the globe view (requires WebGL).

§ Visibility from observer

Set your observer location to see the next 7 days of passes ≥ 10°. The values pass through the URL so the page stays shareable.

No JS? Fill the form by hand. The geolocation button needs JavaScript.